Weather History for North Platte, NE

Change the Weather History Date:

Sunday, June 30, 2013

  Actual Average Record
Temperature  
Mean Temperature 66 °F 72 °F  
Max Temperature 82 °F 87 °F 102 °F (1933)
Min Temperature 50 °F 58 °F 44 °F (1918)
Degree Days  
Heating Degree Days 0 0  
Month to date heating degree days 47 52  
Since 1 June heating degree days 47 51  
Since 1 July heating degree days 6763 6686  
Cooling Degree Days 1 8  
Month to date cooling degree days 179 138  
Year to date cooling degree days 227 166  
Since 1 June cooling degree days 179 138  
Growing Degree Days 16 (Base 50)    
Moisture  
Dew Point 51 °F    
Average Humidity 62    
Maximum Humidity 89    
Minimum Humidity 35    
Precipitation  
Precipitation 0.00 in 0.09 in 2.92 in (1905)
Month to date precipitation 1.95 3.42  
Year to date precipitation 8.11 10.86  
Snow  
Snow 0.00 in 0.00 in 0.00 in ()
Month to date snowfall T 0.0  
Since 1 June snowfall T 0.0  
Since 1 July snowfall 30.2 28.5  
Snow Depth 0.00 in    
Sea Level Pressure  
Sea Level Pressure 30.11 in    
Wind  
Wind Speed 6 mph (NE)    
Max Wind Speed 17 mph    
Max Gust Speed 24 mph    
Visibility 10 miles    
Events      
T = Trace of Precipitation, MM = Missing Value Source: NWS Daily Summary

Daily Weather History Graph

Daily Weather History Graph

Search for Another Location

Airport:

Trip Planner

Search our weather history database for the weather conditions in past years. The results will help you decide how hot, cold, wet, or windy it might be!

Date:

Astronomy

Jun. 30, 2013 Rise Set
Actual Time 6:13 AM CDT 9:19 PM CDT
Civil Twilight 5:39 AM CDT 9:52 PM CDT
Nautical Twilight 4:57 AM CDT 10:35 PM CDT
Astronomical Twilight 4:06 AM CDT 11:26 PM CDT
Moon 1:15 AM CDT 2:33 PM CDT
Length of Visible Light 16h 12m
Length of Day
15h 05m
Last Quarter, 45% of the Moon is Illuminated
Jun 30
Last Quarter
Jul 8
New
Jul 15
First Quarter
Jul 22
Full
Jul 29
Last Quarter

Hourly Weather History & Observations

Time (CDT) Temp. Dew Point Humidity Pressure Visibility Wind Dir Wind Speed Gust Speed Precip Events Conditions
12:53 AM 57.9 °F 50.0 °F 75% 30.07 in 10.0 mi NE 6.9 mph - N/A   Clear
1:53 AM 57.0 °F 50.0 °F 77% 30.08 in 10.0 mi Calm Calm - N/A   Clear
2:53 AM 54.0 °F 48.9 °F 83% 30.08 in 10.0 mi Calm Calm - N/A   Clear
3:53 AM 52.0 °F 48.9 °F 89% 30.09 in 10.0 mi Calm Calm - N/A   Clear
4:53 AM 51.1 °F 48.0 °F 89% 30.10 in 10.0 mi West 4.6 mph - N/A   Clear
5:53 AM 51.1 °F 48.0 °F 89% 30.11 in 10.0 mi NNW 3.5 mph - N/A   Clear
6:53 AM 54.0 °F 50.0 °F 86% 30.13 in 10.0 mi West 4.6 mph - N/A   Clear
7:53 AM 60.1 °F 53.1 °F 78% 30.13 in 10.0 mi Calm Calm - N/A   Clear
8:53 AM 66.9 °F 55.0 °F 66% 30.12 in 10.0 mi NE 5.8 mph - N/A   Clear
9:53 AM 71.1 °F 54.0 °F 55% 30.14 in 10.0 mi East 5.8 mph - N/A   Clear
10:53 AM 75.0 °F 55.0 °F 50% 30.13 in 10.0 mi NE 6.9 mph - N/A   Clear
11:53 AM 75.9 °F 53.1 °F 45% 30.12 in 10.0 mi North 10.4 mph - N/A   Scattered Clouds
12:53 PM 77.0 °F 52.0 °F 42% 30.11 in 10.0 mi NNE 10.4 mph - N/A   Scattered Clouds
1:53 PM 79.0 °F 51.1 °F 38% 30.10 in 10.0 mi North 10.4 mph 17.3 mph N/A   Scattered Clouds
2:53 PM 81.0 °F 52.0 °F 36% 30.10 in 10.0 mi NE 9.2 mph 18.4 mph N/A   Partly Cloudy
3:53 PM 80.1 °F 51.1 °F 36% 30.10 in 10.0 mi NE 8.1 mph 17.3 mph N/A   Scattered Clouds
4:53 PM 80.1 °F 51.1 °F 36% 30.10 in 10.0 mi ENE 6.9 mph 16.1 mph N/A   Partly Cloudy
5:53 PM 80.1 °F 50.0 °F 35% 30.10 in 10.0 mi NE 11.5 mph - N/A   Clear
6:53 PM 79.0 °F 48.9 °F 35% 30.09 in 10.0 mi NE 9.2 mph - N/A   Clear
7:53 PM 75.9 °F 52.0 °F 43% 30.09 in 10.0 mi ENE 10.4 mph - N/A   Clear
8:53 PM 72.0 °F 53.1 °F 51% 30.09 in 10.0 mi ENE 8.1 mph - N/A   Clear
9:53 PM 64.9 °F 54.0 °F 68% 30.12 in 10.0 mi East 4.6 mph - N/A   Clear
10:53 PM 61.0 °F 53.1 °F 75% 30.15 in 10.0 mi ESE 6.9 mph - N/A   Partly Cloudy
11:53 PM 57.0 °F 52.0 °F 83% 30.16 in 10.0 mi ESE 5.8 mph - N/A   Clear